SCP
0 0 0 0 0 0 0 0 0 0 0 0 0 0 0 0 0 0 0 0 0 0 0 0 0 0 0 0 0 0 0 0 0 0 0 0 0 0 0 0 0 0 0
0 0 0 0 0 0 0 0 0 0 0 0 0 0 0 0 0 0 0 0 0 0 0 0 0 0 0 0 0 0 0 0 0 0 0 0 0 0 0 0 0 0 0
0 0 0 0 0 0 0 0 0 0 0 0 0 0 0 0 0 0 0 0 0 0 0 0 0 0 0 0 0 0 0 0 0 0 0 0 0 0 0 0 0 0 0
0 0 0 0 0 0 0 0 0 0 0 0 0 0 0 0 0 0 0 0 0 0 0 0 0 0 0 0 0 0 0 0 0 0 0 0 0 0 0 0 0 0 0
0 0 0 0 0 0 0 0 0 0 0 0 0 0 0 0 0 0 0 0 0 0 0 0 0 0 0 0 0 0 0 0 0 0 0 0 0 0 0 0 0 0 0
0 0 0 0 0 0 0 0 0 0 0 0 0 0 0 0 0 0 0 0 0 0 0 0 0 0 0 0 0 0 0 0 0 0 0 0 0 0 0 0 0 0 0
0 0 0 0 0 0 0 0 0 0 0 0 0 0 0 0 0 0 0 0 0 0 0 0 0 0 0 0 0 0 0 0 0 0 0 0 0 0 0 0 0 0 0
0 0 0 0 0 0 0 0 0 0 0 0 0 0 0 0 0 0 0 0 0 0 0 0 0 0 0 0 0 0 0 0 0 0 0 0 0 0 0 0 0 0 0
0 0 0 0 0 0 0 0 0 0 0 0 0 0 0 0 0 0 0 0 0 0 0 0 0 0 0 0 0 0 0 0 0 0 0 0 0 0 0 0 0 0 0
0 0 0 0 0 0 0 0 0 0 0 0 0 0 0 0 0 0 0 0 0 0 0 0 0 0 0 0 0 0 0 0 0 0 0 0 0 0 0 0 0 0 0
0 0 0 0 0 0 0 0 0 0 0 0 0 0 0 0 0 0 0 0 0 0 0 0 0 0 0 0 0 0 0 0 0 0 0 0 0 0 0 0 0 0 0
0 0 0 0 0 0 0 0 0 0 0 0 0 0 0 0 0 0 0 0 0 0 0 0 0 0 0 0 0 0 0 0 0 0 0 0 0 0 0 0 0 0 0
0 0 0 0 0 0 0 0 0 0 0 0 0 0 0 0 0 0 0 0 0 0 0 0 0 0 0 0 0 0 0 0 0 0 0 0 0 0 0 0 0 0 0
0 0 0 0 0 0 0 0 0 0 0 0 0 0 0 0 0 0 0 0 0 0 0 0 0 0 0 0 0 0 0 0 0 0 0 0 0 0 0 0 0 0 0
0 0 0 0 0 0 0 0 0 0 0 0 0 0 0 0 0 0 0 0 0 0 0 0 0 0 0 0 0 0 0 0 0 0 0 0 0 0 0 0 0 0 0
0 0 0 0 0 0 0 0 0 0 0 0 0 0 0 0 0 0 0 0 0 0 0 0 0 0 0 0 0 0 0 0 0 0 0 0 0 0 0 0 0 0 0
0 0 0 0 0 0 0 0 0 0 0 0 0 0 0 0 0 0 0 0 0 0 0 0 0 0 0 0 0 0 0 0 0 0 0 0 0 0 0 0 0 0 0
0 0 0 0 0 0 0 0 0 0 0 0 0 0 0 0 0 0 0 0 0 0 0 0 0 0 0 0 0 0 0 0 0 0 0 0 0 0 0 0 0 0 0
0 0 0 0 0 0 0 0 0 0 0 0 0 0 0 0 0 0 0 0 0 0 0 0 0 0 0 0 0 0 0 0 0 0 0 0 0 0 0 0 0 0 0
0 0 0 0 0 0 0 0 0 0 0 0 0 0 0 0 0 0 0 0 0 0 0 0 0 0 0 0 0 0 0 0 0 0 0 0 0 0 0 0 0 0 0
0 0 0 0 0 0 0 0 0 0 0 0 0 0 0 0 0 0 0 0 0 0 0 0 0 0 0 0 0 0 0 0 0 0 0 0 0 0 0 0 0 0 0
0 0 0 0 0 0 0 0 0 0 0 0 0 0 0 0 0 0 0 0 0 0 0 0 0 0 0 0 0 0 0 0 0 0 0 0 0 0 0 0 0 0 0
0 0 0 0 0 0 0 0 0 0 0 0 0 0 0 0 0 0 0 0 0 0 0 0 0 0 0 0 0 0 0 0 0 0 0 0 0 0 0 0 0 0 0
0 0 0 0 0 0 0 0 0 0 0 0 0 0 0 0 0 0 0 0 0 0 0 0 0 0 0 0 0 0 0 0 0 0 0 0 0 0 0 0 0 0 0
0 0 0 0 0 0 0 0 0 0 0 0 0 0 0 0 0 0 0 0 0 0 0 0 0 0 0 0 0 0 0 0 0 0 0 0 0 0 0 0 0 0 0
0 0 0 0 0 0 0 0 0 0 0 0 0 0 0 0 0 0 0 0 0 0 0 0 0 0 0 0 0 0 0 0 0 0 0 0 0 0 0 0 0 0 0
Wind_Speed_500mb
43 58 71 79 85 94 101 105 106 104 102 99 95 90 87 84 83 87 95 88 83 72 68 61 65 60 60 56 48 51 51 52 51 42 41 35 33 28 27 25 20 17 17
29 34 44 59 75 88 95 98 102 106 101 98 95 93 92 92 84 88 94 94 92 83 78 76 64 61 58 55 51 57 53 51 49 46 40 43 40 35 33 28 22 18 16
35 37 39 45 55 71 85 88 87 86 89 87 91 93 96 95 91 85 89 96 101 93 86 79 64 66 64 54 56 58 53 51 48 46 44 44 44 38 36 29 21 16 15
39 42 43 42 45 51 59 73 85 80 79 82 85 87 92 90 91 92 83 89 105 98 90 82 62 66 65 54 66 61 57 53 50 46 44 44 39 37 33 26 21 17 16
39 39 40 42 44 45 47 49 59 73 82 78 81 86 85 86 88 85 94 79 102 101 93 84 72 68 58 60 64 62 58 53 50 48 45 46 40 35 30 26 22 19 20
44 40 37 38 39 42 43 43 46 50 59 77 85 79 80 81 84 82 81 86 99 102 97 81 78 68 64 60 57 48 46 48 50 48 47 46 37 33 31 27 23 20 23
45 43 41 41 41 40 43 46 47 51 52 54 58 65 70 73 75 75 87 82 101 96 96 80 85 77 70 65 59 55 53 51 48 40 41 41 38 34 32 29 27 24 24
34 37 39 40 41 42 42 43 46 50 54 54 56 59 64 65 69 72 69 58 77 88 66 72 80 72 70 63 57 54 50 51 44 36 40 41 41 38 34 33 32 30 30
30 34 37 39 40 41 42 40 39 39 41 44 48 54 60 61 62 52 56 56 74 85 76 78 64 56 53 55 54 52 52 47 38 35 43 47 44 42 38 39 36 35 34
35 36 38 41 42 40 38 37 33 29 29 31 31 36 46 49 51 61 69 60 69 68 66 58 54 55 58 50 50 48 44 35 36 42 52 43 51 45 45 42 39 39 37
35 40 43 46 44 40 35 32 27 30 33 32 31 33 37 39 48 53 57 57 60 64 63 65 64 61 56 50 45 39 26 36 40 44 48 55 48 53 47 44 42 41 39
32 34 35 36 36 39 38 33 26 30 34 34 36 34 38 36 39 43 44 52 53 52 52 48 55 54 48 41 31 28 34 46 41 50 54 55 55 55 49 48 46 43 40
28 29 28 28 27 27 29 29 28 27 30 34 38 39 41 42 42 45 51 52 52 41 39 46 44 43 41 34 29 40 52 42 49 60 59 53 60 50 53 55 49 47 46
20 21 20 21 21 20 22 22 24 26 27 32 34 37 42 45 46 48 48 50 48 43 41 44 45 43 42 33 45 53 44 53 55 61 57 64 58 56 57 54 53 51 54
14 18 19 17 15 15 15 16 18 21 24 27 30 32 34 39 44 42 37 35 40 38 44 45 47 48 53 49 49 48 61 63 61 60 65 68 62 60 61 59 58 58 60
16 18 16 15 12 9 10 12 14 17 21 24 21 22 24 22 27 25 25 28 37 47 51 57 62 59 58 51 56 65 74 62 64 62 68 66 65 66 65 64 64 64 63
16 19 19 17 15 12 6 4 5 9 12 13 14 12 9 9 14 19 22 26 29 39 56 62 59 58 58 72 72 76 73 67 60 64 69 67 69 68 68 68 66 65 65
13 15 16 17 15 11 9 9 11 11 11 14 18 18 16 21 26 30 31 37 46 53 63 69 72 73 71 76 80 70 67 65 62 64 72 69 66 66 67 69 66 64 63
15 15 15 16 15 15 14 11 10 9 11 13 14 17 19 24 30 33 36 48 56 61 65 69 71 78 83 79 78 72 72 71 73 72 70 66 68 68 68 67 64 67 66
16 17 18 19 19 18 19 18 17 15 14 14 18 21 20 20 26 32 39 46 53 58 61 65 68 69 72 71 67 60 58 58 60 64 67 65 67 67 66 67 74 75 74
14 16 18 19 20 20 20 18 18 18 18 19 20 21 23 25 27 30 34 39 46 53 59 63 65 64 62 59 58 59 58 58 60 62 63 67 69 72 70 67 70 70 69
23 22 22 21 21 21 21 21 20 19 20 22 21 23 28 28 29 32 36 39 44 50 52 52 54 55 55 55 56 58 61 64 65 65 67 65 63 63 62 65 68 68 68
17 14 13 15 17 19 22 24 25 26 27 29 30 31 29 30 32 36 41 42 44 48 52 55 57 59 59 61 64 66 68 70 69 66 65 63 61 61 61 62 62 61 60
8 9 12 16 19 24 27 29 33 36 36 37 37 38 39 40 41 41 42 44 47 48 48 50 54 59 61 64 65 65 66 65 64 60 55 56 56 56 57 57 56 55 53
10 15 19 22 25 29 33 35 37 38 40 40 42 43 44 46 46 47 48 49 49 50 51 55 56 55 54 55 57 57 56 55 55 53 50 51 52 52 51 51 51 49 48
17 20 23 25 29 32 35 37 40 41 42 42 43 44 46 47 49 51 51 50 51 51 51 51 52 51 51 51 50 50 48 46 46 47 45 44 46 46 45 46 45 45 45
Wind_Direction_500mb
257 253 252 252 253 254 255 258 260 261 260 260 261 260 258 254 250 246 242 243 241 242 235 241 248 246 245 242 233 247 238 228 233 233 230 226 225 226 230 232 239 257 279
281 275 266 257 253 251 254 256 260 261 262 261 260 257 254 251 251 247 242 239 236 235 233 235 243 236 235 234 235 243 232 229 232 233 228 221 221 223 227 229 231 247 274
300 290 285 278 265 256 253 255 258 262 261 259 256 255 256 254 254 248 250 243 236 235 233 233 242 229 228 230 236 235 228 228 230 230 221 215 215 217 222 229 234 251 273
291 286 285 285 280 272 263 256 254 251 255 257 257 258 258 258 256 255 248 252 237 234 232 231 235 229 227 228 226 225 224 225 224 219 218 222 218 218 222 229 240 253 274
304 294 293 290 285 277 271 266 260 254 250 251 253 255 257 258 258 255 255 255 243 234 233 229 229 223 225 226 226 219 219 220 217 214 218 223 222 223 225 232 241 256 281
301 295 293 287 283 282 278 272 266 261 257 250 250 253 253 254 256 259 263 258 245 236 233 228 221 219 219 217 217 219 227 226 216 215 222 228 228 230 234 239 243 259 283
294 293 286 282 277 276 277 277 276 271 267 260 249 251 255 256 254 255 252 261 239 232 235 229 210 217 216 213 208 215 215 212 214 220 230 237 238 238 242 247 254 261 274
284 284 285 285 280 275 276 280 278 274 269 262 255 247 251 257 258 260 257 247 247 241 239 230 223 224 209 209 213 216 216 215 217 226 231 244 243 247 246 251 259 268 278
270 278 281 280 278 277 279 280 278 277 273 270 263 252 246 248 252 252 245 256 243 233 232 229 226 220 213 213 217 217 215 212 219 230 253 240 250 250 251 254 260 269 277
273 269 270 272 271 270 276 278 279 283 283 279 268 256 248 248 250 252 252 240 237 229 227 221 212 214 216 214 216 213 215 214 234 251 242 251 252 253 254 257 262 270 277
288 285 283 280 274 265 264 270 276 272 271 271 271 266 259 251 256 252 248 232 231 229 221 214 206 207 212 208 208 210 210 239 246 244 248 253 253 258 257 261 267 271 276
298 297 293 287 279 268 262 260 263 267 268 267 264 263 254 251 255 257 250 237 227 222 224 220 215 210 209 202 198 214 245 247 240 248 251 254 261 261 263 265 267 270 273
311 309 303 292 280 270 262 262 256 256 265 269 266 258 249 246 241 240 241 240 222 212 210 227 216 208 209 199 225 253 245 242 241 248 255 259 263 266 262 264 269 274 278
321 324 323 313 303 286 271 262 263 264 266 268 266 262 260 253 246 239 230 221 207 206 213 217 219 213 213 226 246 248 260 257 246 255 256 262 266 265 267 269 271 275 277
341 342 341 334 321 302 282 274 272 272 274 277 278 277 272 263 257 251 244 234 217 211 218 214 214 217 226 241 251 261 273 260 248 256 255 267 270 270 271 271 273 275 275
1 359 352 345 340 329 317 309 299 288 287 292 292 289 287 274 254 245 240 223 221 229 231 229 229 227 232 250 267 272 273 249 253 254 262 271 272 272 272 271 273 273 275
12 3 3 0 356 347 338 331 317 318 329 326 320 315 295 279 270 256 251 242 238 237 231 227 231 234 252 264 270 271 265 256 250 257 266 272 272 271 270 270 272 273 274
34 26 17 17 17 16 22 0 358 351 345 336 327 319 290 262 252 249 242 239 236 236 239 241 245 252 259 264 274 272 266 261 257 258 265 274 274 272 272 271 272 273 275
47 48 45 42 35 30 28 25 28 7 343 331 317 308 303 292 283 269 259 255 255 254 251 252 255 265 272 277 278 276 283 274 264 262 266 276 277 272 270 269 267 272 271
58 49 46 45 37 34 29 20 10 356 341 330 326 326 316 297 284 281 275 269 265 264 265 268 272 277 283 284 285 284 284 283 279 275 276 276 278 269 268 267 273 274 271
63 55 46 41 38 32 29 23 12 357 347 337 325 310 299 289 284 279 279 280 280 279 278 280 281 281 283 286 288 287 285 282 279 279 277 275 275 274 275 272 276 276 274
85 72 60 46 38 30 22 13 3 355 344 334 325 314 305 298 291 283 277 272 269 270 272 275 279 282 284 284 283 282 281 281 282 282 283 281 278 275 270 273 275 275 274
88 66 45 27 8 357 352 345 335 329 325 319 314 308 303 297 292 291 288 283 278 276 275 275 274 274 274 274 275 276 278 279 280 280 280 280 277 274 272 274 276 275 274
41 9 351 340 336 329 327 325 321 318 317 314 311 308 305 301 298 295 292 290 290 289 285 280 277 277 276 275 275 277 278 279 279 279 276 275 275 275 274 275 275 275 273
327 328 327 326 325 322 322 320 317 314 313 310 306 304 302 300 297 294 292 292 291 290 289 289 289 288 285 283 282 281 278 277 276 275 273 271 270 271 271 272 273 272 267
311 314 317 320 321 322 321 321 319 320 319 316 312 309 304 300 298 295 293 292 290 288 287 286 286 286 286 286 285 284 281 278 274 274 271 269 270 271 273 273 272 270 269
Wind_Speed_850mb
43 58 71 79 85 94 101 105 106 104 102 99 95 90 87 84 83 87 95 88 83 72 68 61 65 60 60 56 48 51 51 52 51 42 41 35 33 28 27 25 20 17 17
29 34 44 59 75 88 95 98 102 106 101 98 95 93 92 92 84 88 94 94 92 83 78 76 64 61 58 55 51 57 53 51 49 46 40 43 40 35 33 28 22 18 16
35 37 39 45 55 71 85 88 87 86 89 87 91 93 96 95 91 85 89 96 101 93 86 79 64 66 64 54 56 58 53 51 48 46 44 44 44 38 36 29 21 16 15
39 42 43 42 45 51 59 73 85 80 79 82 85 87 92 90 91 92 83 89 105 98 90 82 62 66 65 54 66 61 57 53 50 46 44 44 39 37 33 26 21 17 16
39 39 40 42 44 45 47 49 59 73 82 78 81 86 85 86 88 85 94 79 102 101 93 84 72 68 58 60 64 62 58 53 50 48 45 46 40 35 30 26 22 19 20
44 40 37 38 39 42 43 43 46 50 59 77 85 79 80 81 84 82 81 86 99 102 97 81 78 68 64 60 57 48 46 48 50 48 47 46 37 33 31 27 23 20 23
45 43 41 41 41 40 43 46 47 51 52 54 58 65 70 73 75 75 87 82 101 96 96 80 85 77 70 65 59 55 53 51 48 40 41 41 38 34 32 29 27 24 24
34 37 39 40 41 42 42 43 46 50 54 54 56 59 64 65 69 72 69 58 77 88 66 72 80 72 70 63 57 54 50 51 44 36 40 41 41 38 34 33 32 30 30
30 34 37 39 40 41 42 40 39 39 41 44 48 54 60 61 62 52 56 56 74 85 76 78 64 56 53 55 54 52 52 47 38 35 43 47 44 42 38 39 36 35 34
35 36 38 41 42 40 38 37 33 29 29 31 31 36 46 49 51 61 69 60 69 68 66 58 54 55 58 50 50 48 44 35 36 42 52 43 51 45 45 42 39 39 37
35 40 43 46 44 40 35 32 27 30 33 32 31 33 37 39 48 53 57 57 60 64 63 65 64 61 56 50 45 39 26 36 40 44 48 55 48 53 47 44 42 41 39
32 34 35 36 36 39 38 33 26 30 34 34 36 34 38 36 39 43 44 52 53 52 52 48 55 54 48 41 31 28 34 46 41 50 54 55 55 55 49 48 46 43 40
28 29 28 28 27 27 29 29 28 27 30 34 38 39 41 42 42 45 51 52 52 41 39 46 44 43 41 34 29 40 52 42 49 60 59 53 60 50 53 55 49 47 46
20 21 20 21 21 20 22 22 24 26 27 32 34 37 42 45 46 48 48 50 48 43 41 44 45 43 42 33 45 53 44 53 55 61 57 64 58 56 57 54 53 51 54
14 18 19 17 15 15 15 16 18 21 24 27 30 32 34 39 44 42 37 35 40 38 44 45 47 48 53 49 49 48 61 63 61 60 65 68 62 60 61 59 58 58 60
16 18 16 15 12 9 10 12 14 17 21 24 21 22 24 22 27 25 25 28 37 47 51 57 62 59 58 51 56 65 74 62 64 62 68 66 65 66 65 64 64 64 63
16 19 19 17 15 12 6 4 5 9 12 13 14 12 9 9 14 19 22 26 29 39 56 62 59 58 58 72 72 76 73 67 60 64 69 67 69 68 68 68 66 65 65
13 15 16 17 15 11 9 9 11 11 11 14 18 18 16 21 26 30 31 37 46 53 63 69 72 73 71 76 80 70 67 65 62 64 72 69 66 66 67 69 66 64 63
15 15 15 16 15 15 14 11 10 9 11 13 14 17 19 24 30 33 36 48 56 61 65 69 71 78 83 79 78 72 72 71 73 72 70 66 68 68 68 67 64 67 66
16 17 18 19 19 18 19 18 17 15 14 14 18 21 20 20 26 32 39 46 53 58 61 65 68 69 72 71 67 60 58 58 60 64 67 65 67 67 66 67 74 75 74
14 16 18 19 20 20 20 18 18 18 18 19 20 21 23 25 27 30 34 39 46 53 59 63 65 64 62 59 58 59 58 58 60 62 63 67 69 72 70 67 70 70 69
23 22 22 21 21 21 21 21 20 19 20 22 21 23 28 28 29 32 36 39 44 50 52 52 54 55 55 55 56 58 61 64 65 65 67 65 63 63 62 65 68 68 68
17 14 13 15 17 19 22 24 25 26 27 29 30 31 29 30 32 36 41 42 44 48 52 55 57 59 59 61 64 66 68 70 69 66 65 63 61 61 61 62 62 61 60
8 9 12 16 19 24 27 29 33 36 36 37 37 38 39 40 41 41 42 44 47 48 48 50 54 59 61 64 65 65 66 65 64 60 55 56 56 56 57 57 56 55 53
10 15 19 22 25 29 33 35 37 38 40 40 42 43 44 46 46 47 48 49 49 50 51 55 56 55 54 55 57 57 56 55 55 53 50 51 52 52 51 51 51 49 48
17 20 23 25 29 32 35 37 40 41 42 42 43 44 46 47 49 51 51 50 51 51 51 51 52 51 51 51 50 50 48 46 46 47 45 44 46 46 45 46 45 45 45
Wind_Direction_850mb
257 253 252 252 253 254 255 258 260 261 260 260 261 260 258 254 250 246 242 243 241 242 235 241 248 246 245 242 233 247 238 228 233 233 230 226 225 226 230 232 239 257 279
281 275 266 257 253 251 254 256 260 261 262 261 260 257 254 251 251 247 242 239 236 235 233 235 243 236 235 234 235 243 232 229 232 233 228 221 221 223 227 229 231 247 274
300 290 285 278 265 256 253 255 258 262 261 259 256 255 256 254 254 248 250 243 236 235 233 233 242 229 228 230 236 235 228 228 230 230 221 215 215 217 222 229 234 251 273
291 286 285 285 280 272 263 256 254 251 255 257 257 258 258 258 256 255 248 252 237 234 232 231 235 229 227 228 226 225 224 225 224 219 218 222 218 218 222 229 240 253 274
304 294 293 290 285 277 271 266 260 254 250 251 253 255 257 258 258 255 255 255 243 234 233 229 229 223 225 226 226 219 219 220 217 214 218 223 222 223 225 232 241 256 281
301 295 293 287 283 282 278 272 266 261 257 250 250 253 253 254 256 259 263 258 245 236 233 228 221 219 219 217 217 219 227 226 216 215 222 228 228 230 234 239 243 259 283
294 293 286 282 277 276 277 277 276 271 267 260 249 251 255 256 254 255 252 261 239 232 235 229 210 217 216 213 208 215 215 212 214 220 230 237 238 238 242 247 254 261 274
284 284 285 285 280 275 276 280 278 274 269 262 255 247 251 257 258 260 257 247 247 241 239 230 223 224 209 209 213 216 216 215 217 226 231 244 243 247 246 251 259 268 278
270 278 281 280 278 277 279 280 278 277 273 270 263 252 246 248 252 252 245 256 243 233 232 229 226 220 213 213 217 217 215 212 219 230 253 240 250 250 251 254 260 269 277
273 269 270 272 271 270 276 278 279 283 283 279 268 256 248 248 250 252 252 240 237 229 227 221 212 214 216 214 216 213 215 214 234 251 242 251 252 253 254 257 262 270 277
288 285 283 280 274 265 264 270 276 272 271 271 271 266 259 251 256 252 248 232 231 229 221 214 206 207 212 208 208 210 210 239 246 244 248 253 253 258 257 261 267 271 276
298 297 293 287 279 268 262 260 263 267 268 267 264 263 254 251 255 257 250 237 227 222 224 220 215 210 209 202 198 214 245 247 240 248 251 254 261 261 263 265 267 270 273
311 309 303 292 280 270 262 262 256 256 265 269 266 258 249 246 241 240 241 240 222 212 210 227 216 208 209 199 225 253 245 242 241 248 255 259 263 266 262 264 269 274 278
321 324 323 313 303 286 271 262 263 264 266 268 266 262 260 253 246 239 230 221 207 206 213 217 219 213 213 226 246 248 260 257 246 255 256 262 266 265 267 269 271 275 277
341 342 341 334 321 302 282 274 272 272 274 277 278 277 272 263 257 251 244 234 217 211 218 214 214 217 226 241 251 261 273 260 248 256 255 267 270 270 271 271 273 275 275
1 359 352 345 340 329 317 309 299 288 287 292 292 289 287 274 254 245 240 223 221 229 231 229 229 227 232 250 267 272 273 249 253 254 262 271 272 272 272 271 273 273 275
12 3 3 0 356 347 338 331 317 318 329 326 320 315 295 279 270 256 251 242 238 237 231 227 231 234 252 264 270 271 265 256 250 257 266 272 272 271 270 270 272 273 274
34 26 17 17 17 16 22 0 358 351 345 336 327 319 290 262 252 249 242 239 236 236 239 241 245 252 259 264 274 272 266 261 257 258 265 274 274 272 272 271 272 273 275
47 48 45 42 35 30 28 25 28 7 343 331 317 308 303 292 283 269 259 255 255 254 251 252 255 265 272 277 278 276 283 274 264 262 266 276 277 272 270 269 267 272 271
58 49 46 45 37 34 29 20 10 356 341 330 326 326 316 297 284 281 275 269 265 264 265 268 272 277 283 284 285 284 284 283 279 275 276 276 278 269 268 267 273 274 271
63 55 46 41 38 32 29 23 12 357 347 337 325 310 299 289 284 279 279 280 280 279 278 280 281 281 283 286 288 287 285 282 279 279 277 275 275 274 275 272 276 276 274
85 72 60 46 38 30 22 13 3 355 344 334 325 314 305 298 291 283 277 272 269 270 272 275 279 282 284 284 283 282 281 281 282 282 283 281 278 275 270 273 275 275 274
88 66 45 27 8 357 352 345 335 329 325 319 314 308 303 297 292 291 288 283 278 276 275 275 274 274 274 274 275 276 278 279 280 280 280 280 277 274 272 274 276 275 274
41 9 351 340 336 329 327 325 321 318 317 314 311 308 305 301 298 295 292 290 290 289 285 280 277 277 276 275 275 277 278 279 279 279 276 275 275 275 274 275 275 275 273
327 328 327 326 325 322 322 320 317 314 313 310 306 304 302 300 297 294 292 292 291 290 289 289 289 288 285 283 282 281 278 277 276 275 273 271 270 271 271 272 273 272 267
311 314 317 320 321 322 321 321 319 320 319 316 312 309 304 300 298 295 293 292 290 288 287 286 286 286 286 286 285 284 281 278 274 274 271 269 270 271 273 273 272 270 269